Weather History for Kaiser, MO

Change the Weather History Date:

Thursday, January 31, 2013

  Actual Average Record
Temperature  
Mean Temperature 22 °F -  
Max Temperature 35 °F 41 °F 62 °F (1997)
Min Temperature 10 °F 24 °F 3 °F (2007)
Degree Days  
Heating Degree Days 42    
Moisture  
Dew Point 12 °F    
Average Humidity 60    
Maximum Humidity 74    
Minimum Humidity 40    
Precipitation  
Precipitation 0.00 in - - ()
Sea Level Pressure  
Sea Level Pressure 30.14 in    
Wind  
Wind Speed 9 mph (WNW)    
Max Wind Speed 16 mph    
Max Gust Speed 33 mph    
Visibility 10 miles    
Events      
Averages and records for this station are not official NWS values.
T = Trace of Precipitation, MM = Missing Value Source: NWS Daily Summary

Daily Weather History Graph

Daily Weather History Graph

Search for Another Location

Airport:

Trip Planner

Search our weather history database for the weather conditions in past years. The results will help you decide how hot, cold, wet, or windy it might be!

Date:

Astronomy

Jan. 31, 2013 Rise Set
Actual Time 7:15 AM CST 5:32 PM CST
Civil Twilight 6:47 AM CST 6:00 PM CST
Nautical Twilight 6:16 AM CST 6:31 PM CST
Astronomical Twilight 5:45 AM CST 7:02 PM CST
Moon 10:29 PM CST (1/31) 9:20 AM CST (1/31)
Length of Visible Light 11h 12m
Length of Day
10h 16m
Waning Gibbous, 79% of the Moon is Illuminated
Jan 31
Waning Gibbous
Feb 3
Last Quarter
Feb 10
New
Feb 17
First Quarter
Feb 25
Full

Hourly Weather History & Observations

Time (CST) Temp. Windchill Dew Point Humidity Pressure Visibility Wind Dir Wind Speed Gust Speed Precip Events Conditions
12:15 AM 26.6 °F 16.8 °F 15.8 °F 64% 29.99 in 10.0 mi West 10.4 mph - N/A   Overcast
12:35 AM 26.6 °F 17.5 °F 15.8 °F 64% 30.00 in 10.0 mi West 9.2 mph 16.1 mph N/A   Overcast
12:55 AM 26.6 °F 15.2 °F 17.6 °F 69% 30.00 in 10.0 mi West 13.8 mph 19.6 mph N/A   Overcast
1:15 AM 26.6 °F 15.2 °F 15.8 °F 64% 29.99 in 10.0 mi West 13.8 mph 19.6 mph N/A   Overcast
1:35 AM 26.6 °F 18.2 °F 15.8 °F 64% 30.00 in 10.0 mi West 8.1 mph 19.6 mph N/A   Overcast
1:55 AM 26.6 °F 19.1 °F 14.0 °F 59% 30.00 in 10.0 mi WNW 6.9 mph - N/A   Overcast
2:15 AM 24.8 °F 15.3 °F 14.0 °F 64% 30.00 in 10.0 mi WNW 9.2 mph - N/A   Scattered Clouds
2:35 AM 24.8 °F 16.1 °F 14.0 °F 64% 30.01 in 10.0 mi WNW 8.1 mph 17.3 mph N/A   Clear
2:55 AM 24.8 °F 17.9 °F 14.0 °F 64% 30.01 in 10.0 mi WNW 5.8 mph - N/A   Clear
3:15 AM 24.8 °F 19.1 °F 14.0 °F 64% 30.00 in 10.0 mi WNW 4.6 mph - N/A   Partly Cloudy
3:35 AM 24.8 °F 20.5 °F 15.8 °F 69% 30.00 in 10.0 mi West 3.5 mph - N/A   Mostly Cloudy
3:55 AM 24.8 °F 19.1 °F 15.8 °F 69% 29.99 in 10.0 mi WNW 4.6 mph - N/A   Overcast
4:15 AM 24.8 °F 19.1 °F 15.8 °F 69% 29.99 in 10.0 mi WNW 4.6 mph - N/A   Overcast
4:35 AM 24.8 °F 16.9 °F 15.8 °F 69% 29.99 in 10.0 mi West 6.9 mph - N/A   Overcast
4:55 AM 24.8 °F 16.9 °F 15.8 °F 69% 29.99 in 10.0 mi WSW 6.9 mph - N/A   Overcast
5:15 AM 24.8 °F 17.9 °F 15.8 °F 69% 29.99 in 10.0 mi WSW 5.8 mph - N/A   Overcast
5:35 AM 24.8 °F 17.9 °F 15.8 °F 69% 29.98 in 10.0 mi SSW 5.8 mph - N/A   Overcast
5:55 AM 24.8 °F 17.9 °F 17.6 °F 74% 29.99 in 10.0 mi West 5.8 mph - N/A   Overcast
6:15 AM 24.8 °F 19.1 °F 17.6 °F 74% 29.99 in 10.0 mi SW 4.6 mph - N/A   Overcast
6:35 AM 24.8 °F 17.9 °F 17.6 °F 74% 30.00 in 10.0 mi SW 5.8 mph - N/A   Overcast
6:55 AM 24.8 °F 19.1 °F 17.6 °F 74% 30.00 in 10.0 mi WSW 4.6 mph - N/A   Overcast
7:15 AM 26.6 °F 19.1 °F 17.6 °F 69% 30.02 in 10.0 mi SW 6.9 mph - N/A   Overcast
7:35 AM 26.6 °F 19.1 °F 17.6 °F 69% 30.02 in 10.0 mi WSW 6.9 mph - N/A   Overcast
7:55 AM 24.8 °F 17.9 °F 17.6 °F 74% 30.03 in 10.0 mi WSW 5.8 mph - N/A   Mostly Cloudy
8:15 AM 26.6 °F 19.1 °F 17.6 °F 69% 30.05 in 10.0 mi West 6.9 mph - N/A   Scattered Clouds
8:35 AM 26.6 °F 21.2 °F 19.4 °F 74% 30.06 in 10.0 mi West 4.6 mph - N/A   Clear
8:55 AM 28.4 °F 21.2 °F 19.4 °F 69% 30.06 in 10.0 mi WSW 6.9 mph - N/A   Clear
9:15 AM 28.4 °F 22.2 °F 19.4 °F 69% 30.07 in 10.0 mi West 5.8 mph - N/A   Clear
9:35 AM 30.2 °F 24.3 °F 17.6 °F 60% 30.07 in 10.0 mi West 5.8 mph - N/A   Partly Cloudy
9:55 AM 30.2 °F 22.6 °F 17.6 °F 60% 30.07 in 10.0 mi West 8.1 mph - N/A   Mostly Cloudy
10:15 AM 32.0 °F 24.2 °F 19.4 °F 60% 30.07 in 10.0 mi West 9.2 mph - N/A   Overcast
10:35 AM 33.8 °F 26.4 °F 19.4 °F 56% 30.08 in 10.0 mi West 9.2 mph 17.3 mph N/A   Scattered Clouds
10:55 AM 33.8 °F 27.7 °F 19.4 °F 56% 30.08 in 10.0 mi NW 6.9 mph 16.1 mph N/A   Partly Cloudy
11:15 AM 33.8 °F 25.8 °F 19.4 °F 56% 30.09 in 10.0 mi WNW 10.4 mph - N/A   Mostly Cloudy
11:35 AM 33.8 °F 26.4 °F 19.4 °F 56% 30.09 in 10.0 mi NW 9.2 mph - N/A   Mostly Cloudy
11:55 AM 33.8 °F 28.6 °F 19.4 °F 56% 30.08 in 10.0 mi NW 5.8 mph 18.4 mph N/A   Mostly Cloudy
12:15 PM 35.6 °F 28.0 °F 21.2 °F 56% 30.09 in 10.0 mi WNW 10.4 mph 19.6 mph N/A   Overcast
12:35 PM 33.8 °F 24.8 °F 17.6 °F 52% 30.09 in 8.0 mi WNW 12.7 mph - N/A   Overcast
12:55 PM 32.0 °F 22.5 °F 17.6 °F 55% 30.11 in 10.0 mi NW 12.7 mph 19.6 mph N/A   Overcast
1:15 PM 30.2 °F 21.9 °F 17.6 °F 60% 30.13 in 5.0 mi NW 9.2 mph - N/A   Mostly Cloudy
1:35 PM 28.4 °F 18.5 °F 19.4 °F 69% 30.14 in 2.0 mi WNW 11.5 mph 18.4 mph N/A   Overcast
2:15 PM 26.6 °F 14.7 °F 15.8 °F 64% 30.16 in 9.0 mi WNW 15.0 mph 25.3 mph N/A   Overcast
2:35 PM 26.6 °F 18.2 °F 15.8 °F 64% 30.17 in 10.0 mi NW 8.1 mph - N/A   Mostly Cloudy
2:55 PM 26.6 °F 20.0 °F 15.8 °F 64% 30.17 in 9.0 mi NW 5.8 mph 18.4 mph N/A   Mostly Cloudy
3:15 PM 26.6 °F 14.3 °F 12.2 °F 55% 30.18 in 10.0 mi WNW 16.1 mph 25.3 mph N/A   Mostly Cloudy
3:35 PM 26.6 °F 15.7 °F 6.8 °F 43% 30.21 in 10.0 mi NW 12.7 mph 33.4 mph N/A   Overcast
3:55 PM 24.8 °F 13.4 °F 6.8 °F 46% 30.22 in 10.0 mi NW 12.7 mph 19.6 mph N/A   Partly Cloudy
4:15 PM 24.8 °F 11.9 °F 3.2 °F 40% 30.22 in 10.0 mi NW 16.1 mph 26.5 mph N/A   Clear
4:35 PM 23.0 °F 11.7 °F 3.2 °F 43% 30.23 in 10.0 mi WNW 11.5 mph 25.3 mph N/A   Clear
4:55 PM 23.0 °F 11.7 °F 3.2 °F 43% 30.24 in 10.0 mi NW 11.5 mph 17.3 mph N/A   Clear
5:15 PM 21.2 °F 10.9 °F 3.2 °F 46% 30.25 in 10.0 mi NNW 9.2 mph 19.6 mph N/A   Clear
5:35 PM 21.2 °F 10.1 °F 3.2 °F 46% 30.26 in 10.0 mi NW 10.4 mph 16.1 mph N/A   Clear
5:55 PM 19.4 °F 9.5 °F 3.2 °F 49% 30.27 in 10.0 mi NW 8.1 mph 16.1 mph N/A   Clear
6:15 PM 19.4 °F 7.9 °F 3.2 °F 49% 30.29 in 10.0 mi NW 10.4 mph 18.4 mph N/A   Clear
6:35 PM 19.4 °F 6.0 °F 3.2 °F 49% 30.30 in 10.0 mi NW 13.8 mph 18.4 mph N/A   Clear
7:15 PM 17.6 °F 8.2 °F 3.2 °F 53% 30.34 in 10.0 mi NW 6.9 mph 19.6 mph N/A   Partly Cloudy
7:35 PM 17.6 °F 6.4 °F 5.0 °F 58% 30.34 in 10.0 mi NNW 9.2 mph 23.0 mph N/A   Scattered Clouds
8:15 PM 15.8 °F 3.4 °F -0.4 °F 49% 30.37 in 10.0 mi NNW 10.4 mph 18.4 mph N/A   Partly Cloudy
8:35 PM 15.8 °F 5.1 °F 1.4 °F 53% 30.38 in 10.0 mi NNW 8.1 mph 20.7 mph N/A   Clear
9:15 PM 12.2 °F 0.7 °F -0.4 °F 57% 30.40 in 10.0 mi NNW 8.1 mph 16.1 mph N/A   Clear
9:35 PM 12.2 °F 0.7 °F -0.4 °F 57% 30.42 in 10.0 mi NNW 8.1 mph - N/A   Clear
10:15 PM 12.2 °F 4.3 °F -0.4 °F 57% 30.44 in 10.0 mi NNW 4.6 mph - N/A   Partly Cloudy
10:35 PM 12.2 °F 0.7 °F 1.4 °F 62% 30.45 in 10.0 mi NW 8.1 mph 18.4 mph N/A   Scattered Clouds
10:55 PM 12.2 °F 0.7 °F -0.4 °F 57% 30.46 in 10.0 mi NW 8.1 mph 16.1 mph N/A   Clear
11:15 PM 10.4 °F -1.5 °F -2.2 °F 57% 30.45 in 10.0 mi WNW 8.1 mph - N/A   Clear
11:35 PM 10.4 °F -0.4 °F -2.2 °F 57% 30.46 in 10.0 mi NW 6.9 mph 16.1 mph N/A   Clear
11:55 PM 10.4 °F -1.5 °F -2.2 °F 57% 30.45 in 10.0 mi NW 8.1 mph - N/A   Clear